DW3384 Weather Reports


Display with metric or nautical units.
time (UTC)temp
F
wind
direction
speed
MPH
gust
MPH
rain 1hr
in
rain 24hr
in
rain mn
in
humidity
%
barometer
mb
20260831080029 80 172 7.0 16.0 0.00 0.00 0.00 48 1004.2
20260831074527 80 207 7.0 14.0 0.00 0.00 0.00 47 1004.2
20260831073025 81 159 7.0 15.0 0.00 0.00 0.00 47 1004.2
20260831071522 81 190 6.0 11.0 0.00 0.00 0.00 46 1004.2
20260831070025 82 164 7.0 13.0 0.00 0.00 0.00 45 1004.1
20260831064517 82 130 6.0 14.0 0.00 0.00 0.00 45 1004.1
20260831063014 83 183 8.0 16.0 0.00 0.00 0.00 44 1004.1
20260831061512 83 165 7.0 16.0 0.00 0.00 0.00 44 1004.1
20260831060010 83 167 6.0 16.0 0.00 0.00 0.00 44 1004.0
20260831054507 84 167 5.0 14.0 0.00 0.00 0.00 44 1003.9
20260831053005 84 147 7.0 17.0 0.00 0.00 0.00 44 1003.7
20260831051501 84 116 8.0 21.0 0.00 0.00 0.00 43 1003.4
20260831050059 85 168 8.0 19.0 0.00 0.00 0.00 43 1003.2
20260831050003 85 136 9.0 20.0 0.00 0.00 0.00 43 1003.1
20260831044605 85 139 10.0 18.0 0.00 0.00 0.00 42 1003.0
20260831043058 86 161 9.0 18.0 0.00 0.00 0.00 41 1002.8
20260831041644 86 111 9.0 18.0 0.00 0.00 0.00 39 1002.8
20260831040059 87 165 10.0 22.0 0.00 0.00 0.00 38 1002.7
20260831034600 87 125 12.0 22.0 0.00 0.00 0.00 38 1002.6
20260831033057 88 143 10.0 17.0 0.00 0.00 0.00 38 1002.5
20260831031557 88 180 8.0 18.0 0.00 0.00 0.00 38 1002.5
20260831030100 88 185 7.0 20.0 0.00 0.00 0.00 38 1002.3
20260831024616 88 126 9.0 23.0 0.00 0.00 0.00 38 1002.1
20260831023054 88 108 9.0 16.0 0.00 0.00 0.00 38 1002.1
20260831021554 88 154 7.0 18.0 0.00 0.00 0.00 38 1001.8
20260831020053 89 178 6.0 12.0 0.00 0.00 0.00 37 1001.7
20260831014552 90 76 7.0 12.0 0.00 0.00 0.00 36 1001.5
20260831013107 91 144 6.0 12.0 0.00 0.00 0.00 34 1001.5
20260831011555 92 136 8.0 15.0 0.00 0.00 0.00 33 1001.4
20260831010116 93 153 4.0 13.0 0.00 0.00 0.00 32 1001.4
20260831004552 95 181 8.0 19.0 0.00 0.00 0.00 31 1001.3
20260831003050 95 173 8.0 17.0 0.00 0.00 0.00 30 1001.3
20260831001550 97 201 11.0 19.0 0.00 0.00 0.00 29 1001.3
20260831000107 97 136 9.0 20.0 0.00 0.00 0.00 28 1001.2
20260830234548 98 169 9.0 19.0 0.00 0.00 0.00 27 1001.2
20260830233048 98 204 8.0 20.0 0.00 0.00 0.00 27 1001.3
20260830231548 99 200 9.0 19.0 0.00 0.00 0.00 27 1001.2
20260830230053 99 184 7.0 22.0 0.00 0.00 0.00 27 1001.1
20260830224547 99 209 10.0 24.0 0.00 0.00 0.00 26 1001.1
20260830223116 100 158 7.0 20.0 0.00 0.00 0.00 26 1001.1
20260830221550 100 178 8.0 20.0 0.00 0.00 0.00 26 1001.1
20260830220043 100 164 10.0 17.0 0.00 0.00 0.00 25 1001.2
20260830214542 100 173 9.0 20.0 0.00 0.00 0.00 25 1001.4
20260830213043 100 172 8.0 15.0 0.00 0.00 0.00 26 1001.4
20260830211539 100 219 7.0 16.0 0.00 0.00 0.00 27 1001.5
20260830210034 100 219 9.0 19.0 0.00 0.00 0.00 27 1001.7
20260830204530 99 237 7.0 17.0 0.00 0.00 0.00 27 1002.0
20260830203031 99 180 9.0 19.0 0.00 0.00 0.00 27 1002.2
20260830201523 99 188 10.0 17.0 0.00 0.00 0.00 28 1002.3
20260830200020 98 111 11.0 24.0 0.00 0.00 0.00 28 1002.5
20260830194521 98 173 10.0 18.0 0.00 0.00 0.00 28 1002.6
20260830193016 98 228 6.0 20.0 0.00 0.00 0.00 29 1002.7
20260830191511 98 159 10.0 22.0 0.00 0.00 0.00 30 1002.8
20260830190011 98 182 9.0 23.0 0.00 0.00 0.00 30 1002.9
20260830184505 98 202 7.0 16.0 0.00 0.00 0.00 30 1003.1
20260830183003 97 182 9.0 20.0 0.00 0.00 0.00 31 1003.3
20260830181601 97 202 10.0 19.0 0.00 0.00 0.00 32 1003.6
20260830180058 96 169 8.0 19.0 0.00 0.00 0.00 32 1003.8
20260830174600 96 210 7.0 18.0 0.00 0.00 0.00 33 1003.9
20260830173054 95 144 8.0 15.0 0.00 0.00 0.00 35 1004.2
20260830171612 95 181 7.0 16.0 0.00 0.00 0.00 36 1004.2
20260830170047 93 188 9.0 20.0 0.00 0.00 0.00 37 1004.4
20260830164542 92 269 10.0 18.0 0.00 0.00 0.00 38 1004.4
20260830163047 91 238 8.0 16.0 0.00 0.00 0.00 40 1004.6
20260830161542 90 250 9.0 17.0 0.00 0.00 0.00 41 1004.6
20260830160032 89 227 7.0 16.0 0.00 0.00 0.00 43 1004.6
20260830154529 88 208 8.0 17.0 0.00 0.00 0.00 44 1004.6
20260830153025 87 205 7.0 15.0 0.00 0.00 0.00 45 1004.6
20260830151523 86 232 6.0 13.0 0.00 0.00 0.00 46 1004.7
20260830150020 85 193 5.0 14.0 0.00 0.00 0.00 47 1004.7
20260830144519 84 256 6.0 15.0 0.00 0.00 0.00 47 1004.7
20260830143016 83 235 7.0 12.0 0.00 0.00 0.00 47 1004.9
20260830141514 81 238 5.0 10.0 0.00 0.00 0.00 49 1005.0
20260830140013 80 249 5.0 10.0 0.00 0.00 0.00 51 1005.0
20260830134522 79 226 6.0 14.0 0.00 0.00 0.00 52 1004.8
20260830133009 77 226 4.0 10.0 0.00 0.00 0.00 54 1004.8
20260830131509 76 259 6.0 14.0 0.00 0.00 0.00 56 1004.6
20260830130013 75 193 4.0 9.0 0.00 0.00 0.00 57 1004.9
20260830124505 76 263 4.0 11.0 0.00 0.00 0.00 56 1004.7
20260830123009 75 209 4.0 10.0 0.00 0.00 0.00 56 1004.5
20260830121502 75 221 4.0 9.0 0.00 0.00 0.00 56 1004.6
20260830114601 76 245 5.0 10.0 0.00 0.00 0.00 54 1004.1
20260830113055 77 215 6.0 12.0 0.00 0.00 0.00 53 1004.1
20260830111553 77 253 5.0 12.0 0.00 0.00 0.00 52 1004.1
20260830110100 77 194 4.0 12.0 0.00 0.00 0.00 52 1004.0
20260830104550 77 231 4.0 9.0 0.00 0.00 0.00 52 1003.9
20260830103047 77 225 5.0 11.0 0.00 0.00 0.00 51 1004.0
20260830101544 78 225 2.0 7.0 0.00 0.00 0.00 50 1004.0
20260830100051 78 216 3.0 9.0 0.00 0.00 0.00 49 1004.0
20260830094540 79 225 3.0 8.0 0.00 0.00 0.00 47 1004.0
20260830093038 80 220 7.0 17.0 0.00 0.00 0.00 46 1003.8
20260830091540 80 239 8.0 18.0 0.00 0.00 0.00 46 1003.8
20260830090034 80 177 10.0 19.0 0.00 0.00 0.00 45 1003.6
20260830084558 81 178 9.0 19.0 0.00 0.00 0.00 44 1003.5
20260830083028 81 186 9.0 20.0 0.00 0.00 0.00 43 1003.6
20260830081529 82 161 12.0 26.0 0.00 0.00 0.00 43 1003.6